CAPE
0 0 0 0 0 0 0 1 1 0 0 0 0 0 0 6 0 0 0 0 0 0 0 0 0 0 0 0 0 0 0 0 0 1 212 207 90 36 0 63 450 796 366 239 244
0 0 0 0 0 0 0 0 0 0 0 0 0 0 0 0 0 0 0 0 0 1 0 0 0 0 0 0 0 0 0 0 0 22 216 95 14 0 3 0 304 228 328 236 200
0 0 0 0 0 0 0 0 0 0 0 0 0 0 2 0 0 0 0 0 1 33 0 0 0 0 0 0 0 0 0 0 0 61 95 5 0 0 0 1 229 271 368 178 79
0 0 0 0 0 0 0 0 0 0 0 0 0 0 0 0 0 0 0 43 96 0 0 0 0 0 0 0 0 0 0 0 0 113 88 68 68 9 0 0 525 262 42 88 80
0 0 0 0 0 0 0 0 0 0 0 0 0 0 0 0 0 0 0 41 0 0 0 0 0 0 0 0 0 0 9 0 21 58 202 174 62 15 1 39 238 329 55 69 131
0 0 0 0 0 0 0 0 0 0 0 0 0 0 0 0 0 0 0 0 0 0 0 0 0 0 0 0 1 17 3 4 100 128 147 219 40 13 30 263 277 143 373 114 74
2 0 0 0 0 0 0 0 0 0 0 0 0 0 0 0 0 0 0 0 2 0 0 1 4 24 19 0 21 16 1 13 76 93 119 29 20 6 74 33 149 65 237 283 320
3 0 0 0 0 0 0 0 0 0 0 0 0 0 0 0 0 0 0 0 16 59 44 33 38 30 33 6 45 27 0 0 61 118 44 10 0 47 107 155 233 64 169 404 529
2 4 0 0 0 0 0 0 0 0 0 0 0 0 0 0 0 0 0 0 17 55 73 24 20 23 18 45 40 17 0 1 0 35 28 3 0 60 137 501 597 639 751 779 621
0 4 1 0 0 0 0 0 0 0 0 0 0 0 0 0 0 0 0 0 0 9 22 17 17 13 28 21 26 1 0 0 0 0 15 25 0 23 386 764 831 868 894 698 661
0 0 4 0 0 0 0 0 0 0 0 0 0 0 0 0 0 0 0 0 0 10 23 62 25 17 30 25 26 0 0 0 0 0 1 37 13 5 316 831 950 901 709 318 378
0 3 3 0 0 0 0 0 0 0 0 0 0 0 0 0 0 0 0 0 0 4 19 19 7 32 7 2 0 5 0 0 0 0 0 8 6 0 648 828 732 499 493 220 137
0 6 4 0 0 0 0 0 0 0 0 0 0 0 0 0 0 0 0 0 0 0 2 1 3 3 6 0 0 1 0 0 0 0 2 0 2 0 66 361 484 342 377 286 89
0 11 8 0 0 0 0 0 0 0 0 0 0 0 0 0 0 0 0 0 0 0 0 0 0 0 0 0 0 0 0 0 2 1 0 13 0 0 0 9 137 260 234 226 75
0 12 11 0 0 0 0 0 0 0 0 0 0 0 0 0 0 0 0 0 0 0 0 0 0 0 0 0 0 0 0 0 1 0 0 0 0 0 0 0 22 119 121 125 108
0 21 23 0 0 0 0 0 0 0 0 0 0 0 0 0 0 0 0 0 0 0 0 0 0 0 0 0 4 7 0 0 0 1 0 0 0 0 0 0 0 97 111 129 150
0 10 23 0 0 0 0 0 1 0 0 0 0 0 0 0 0 0 0 0 0 0 0 0 0 0 2 1 2 27 22 14 5 1 0 1 0 0 0 0 0 0 54 91 100
0 5 17 0 0 0 0 28 0 0 0 0 0 0 0 0 0 0 0 0 0 0 0 3 0 0 0 0 8 14 41 27 0 0 0 1 2 0 4 0 0 0 8 3 150
4 16 17 0 10 2 10 0 0 0 0 0 0 0 0 0 0 0 0 0 0 0 0 0 0 0 0 9 9 12 29 38 21 2 12 0 0 19 2 6 64 70 21 1 139
12 35 12 0 14 5 17 0 0 0 0 0 0 0 0 0 0 0 0 0 0 0 0 0 1 1 21 0 6 32 14 15 31 0 0 0 0 7 10 29 141 82 52 156 296
15 61 19 8 19 1 0 0 0 0 0 0 0 0 0 0 0 0 0 0 0 0 0 17 2 0 0 3 0 10 0 1 1 0 1 0 0 30 11 53 143 97 100 480 644
19 2 10 14 5 0 0 0 0 0 0 0 0 4 0 0 0 0 0 0 0 0 3 6 2 1 0 0 1 6 1 4 33 6 0 0 0 0 0 11 110 107 203 514 592
0 41 30 0 6 0 0 0 0 0 0 0 0 1 0 0 0 0 0 5 47 7 6 29 25 20 12 3 43 61 26 3 1 0 0 0 0 0 0 0 0 53 148 394 502
40 27 68 26 1 0 0 0 0 0 0 0 0 0 0 0 0 0 0 27 44 33 34 48 29 14 0 0 5 2 7 13 7 6 0 1 0 0 0 0 0 0 1 255 443
40 21 7 0 8 0 0 0 0 0 0 0 0 0 0 0 0 0 0 26 38 36 48 37 31 36 8 0 1 0 0 17 38 18 7 0 0 0 0 0 0 0 0 0 283
25 29 28 5 13 4 0 0 0 0 0 0 0 15 5 0 0 0 3 0 7 48 51 16 1 0 0 1 0 0 0 0 0 6 10 4 0 0 0 0 0 0 0 0 0
22 23 33 0 0 5 0 0 0 0 0 0 5 38 7 0 0 0 43 10 14 15 5 0 0 0 0 0 0 0 0 0 0 0 0 1 1 0 0 0 0 0 0 0 0
CIN
-0 -0 -0 -0 -0 -0 -0 -0 -0 -0 -0 -0 -0 -0 -0 -0 -0 -0 -0 -0 -0 -0 -0 -0 -0 -0 -0 -0 -0 -0 -0 -1 -0 -83 -49 -75 -117 -384 -20 -212 -52 -89 -132 -121 -53
-0 -0 -0 -0 -0 -0 -0 -0 -0 -0 -0 -0 -0 -0 -0 -0 -0 -0 -0 -0 -0 -361 -0 -0 -0 -0 -0 -0 -0 -0 -0 -0 -0 -74 -65 -73 -176 -0 -126 -0 -33 -34 -92 -39 -22
-0 -0 -0 -0 -0 -0 -0 -0 -0 -0 -0 -0 -0 -0 -0 -0 -0 -0 -0 -0 -334 -805 -0 -0 -0 -0 -0 -0 -0 -0 -0 -0 -0 -135 -87 -49 -0 -0 -0 -7 -43 -94 -48 -53 -53
-0 -0 -0 -0 -0 -0 -0 -0 -0 -0 -0 -0 -0 -0 -0 -0 -0 -0 -0 -719 -704 -0 -0 -0 -0 -0 -0 -0 -0 -0 -0 -0 -0 -103 -51 -40 -47 -104 -1 -0 -82 -127 -159 -109 -92
-0 -0 -0 -0 -0 -0 -0 -0 -0 -0 -0 -0 -0 -0 -0 -0 -0 -0 -0 -476 -0 -0 -0 -0 -0 -0 -0 -0 -0 -0 -69 -0 -70 -76 -34 -22 -35 -37 -10 -331 -115 -123 -131 -93 -31
-0 -0 -0 -0 -0 -0 -0 -0 -0 -0 -0 -0 -0 -0 -0 -0 -0 -0 -0 -0 -0 -0 -0 -0 -0 -0 -0 -0 -22 -35 -30 -11 -68 -56 -46 -24 -14 -6 -58 -209 -134 -128 -77 -106 -42
-3 -0 -0 -0 -0 -0 -0 -0 -0 -0 -0 -0 -0 -0 -0 -0 -0 -0 -0 -0 -89 -0 -0 -171 -110 -107 -108 -0 -39 -28 -21 -20 -28 -20 -67 -18 -63 -88 -54 -85 -136 -88 -69 -28 -26
-0 -3 -0 -0 -0 -0 -0 -0 -0 -0 -0 -0 -0 -0 -0 -0 -0 -0 -0 -34 -147 -106 -99 -109 -92 -102 -118 -124 -27 -47 -3 -0 -15 -18 -73 -17 -0 -23 -57 -47 -21 -66 -63 -35 -22
-0 -0 -0 -0 -0 -0 -0 -0 -0 -0 -0 -0 -0 -0 -0 -0 -0 -0 -0 -0 -112 -99 -72 -97 -86 -102 -109 -21 -33 -14 -0 -6 -6 -26 -39 -17 -0 -68 -50 -30 -37 -74 -9 -18 -21
-0 -5 -1 -0 -0 -0 -0 -0 -0 -0 -0 -0 -0 -0 -0 -0 -0 -0 -0 -0 -0 -123 -76 -91 -65 -99 -52 -18 -18 -13 -6 -0 -0 -0 -59 -39 -0 -41 -72 -63 -54 -31 -10 -12 -23
-0 -0 -5 -0 -0 -0 -0 -0 -0 -0 -0 -0 -0 -0 -0 -0 -0 -0 -0 -0 -0 -94 -36 -60 -59 -39 -4 -5 -11 -7 -0 -0 -0 -0 -9 -47 -49 -35 -116 -44 -52 -42 -26 -47 -36
-0 -14 -0 -0 -0 -0 -0 -0 -0 -0 -0 -0 -0 -0 -0 -0 -0 -0 -0 -0 -0 -79 -39 -29 -30 -24 -26 -17 -6 -17 -0 -0 -0 -0 -0 -30 -19 -0 -76 -65 -67 -94 -67 -78 -57
-0 -11 -0 -0 -0 -0 -0 -0 -0 -0 -0 -0 -0 -0 -0 -0 -0 -0 -0 -0 -0 -0 -18 -34 -13 -3 -35 -2 -11 -6 -0 -0 -0 -0 -10 -0 -8 -0 -34 -45 -59 -80 -75 -66 -85
-0 -5 -1 -0 -0 -0 -0 -0 -0 -0 -0 -0 -0 -0 -0 -0 -0 -0 -0 -0 -0 -15 -0 -0 -0 -0 -0 -10 -0 -0 -0 -0 -32 -20 -0 -36 -0 -0 -0 -20 -55 -73 -88 -90 -36
-0 -3 -0 -0 -0 -0 -0 -0 -0 -0 -0 -0 -0 -0 -0 -0 -0 -0 -0 -0 -0 -0 -0 -0 -0 -0 -0 -0 -2 -1 -0 -1 -51 -0 -0 -0 -0 -0 -0 -0 -53 -37 -32 -41 -38
-0 -0 -0 -0 -0 -0 -0 -0 -0 -0 -0 -0 -0 -0 -0 -0 -0 -0 -0 -0 -0 -0 -7 -0 -0 -0 -15 -5 -42 -33 -19 -27 -0 -61 -55 -13 -0 -0 -0 -0 -0 -67 -39 -31 -25
-0 -0 -0 -0 -0 -0 -0 -0 -0 -0 -0 -0 -0 -0 -0 -0 -0 -0 -0 -0 -0 -0 -0 -0 -0 -0 -75 -15 -10 -15 -14 -12 -5 -7 -0 -22 -0 -0 -0 -10 -4 -0 -54 -34 -33
-0 -0 -0 -0 -0 -0 -0 -4 -0 -0 -0 -0 -0 -0 -0 -0 -0 -0 -0 -0 -0 -0 -0 -14 -0 -56 -4 -40 -6 -13 -20 -9 -0 -0 -0 -40 -19 -7 -59 -0 -0 -0 -32 -16 -75
-1 -0 -0 -0 -0 -5 -8 -0 -0 -0 -0 -0 -0 -0 -0 -0 -0 -0 -0 -0 -0 -0 -0 -0 -0 -0 -0 -14 -7 -10 -23 -36 -9 -33 -57 -0 -0 -64 -15 -45 -60 -55 -28 -6 -169
-0 -0 -0 -0 -0 -4 -0 -0 -0 -0 -0 -0 -0 -0 -0 -0 -0 -0 -0 -0 -0 -0 -0 -0 -28 -59 -149 -2 -13 -19 -16 -7 -12 -0 -0 -0 -0 -37 -51 -67 -44 -44 -52 -228 -119
-0 -0 -31 -3 -0 -0 -0 -0 -0 -0 -0 -0 -0 -0 -0 -0 -0 -0 -0 -0 -0 -0 -0 -73 -24 -0 -12 -75 -37 -19 -1 -17 -6 -0 -23 -0 -0 -18 -28 -45 -35 -43 -68 -114 -82
-3 -0 -7 -1 -0 -0 -0 -0 -0 -0 -0 -0 -0 -58 -0 -0 -0 -0 -0 -0 -0 -0 -75 -51 -20 -1 -0 -0 -35 -66 -4 -23 -8 -5 -0 -0 -0 -0 -2 -41 -41 -29 -82 -70 -71
-0 -8 -26 -0 -0 -0 -0 -0 -0 -0 -0 -0 -0 -37 -0 -0 -0 -0 -0 -44 -77 -63 -32 -29 -11 -22 -51 -7 -30 -37 -27 -1 -1 -0 -0 -0 -0 -0 -0 -0 -0 -36 -37 -67 -51
-13 -2 -0 -0 -1 -0 -0 -0 -0 -0 -0 -0 -0 -7 -0 -0 -0 -0 -0 -104 -71 -30 -10 -28 -12 -22 -0 -0 -9 -13 -23 -3 -2 -6 -0 -3 -1 -0 -0 -0 -0 -0 -6 -32 -30
-4 -6 -2 -0 -0 -0 -0 -0 -0 -0 -0 -0 -0 -3 -0 -0 -0 -0 -0 -107 -52 -34 -44 -15 -11 -8 -3 -0 -12 -0 -0 -17 -13 -11 -10 -0 -0 -0 -0 -0 -0 -0 -0 -0 -32
-3 -9 -13 -1 -1 -0 -0 -0 -0 -0 -0 -0 -0 -29 -58 -0 -0 -14 -27 -0 -11 -35 -25 -32 -5 -0 -0 -14 -0 -0 -0 -0 -0 -13 -8 -5 -0 -0 -0 -0 -0 -0 -0 -0 -0
-2 -6 -5 -0 -0 -0 -0 -0 -0 -0 -0 -0 -2 -18 -57 -0 -0 -0 -23 -2 -8 -9 -3 -0 -0 -0 -0 -0 -0 -0 -0 -0 -0 -0 -0 -0 -2 -0 -0 -0 -0 -0 -0 -0 -0
Wind_Speed
nan nan nan nan nan nan nan nan nan nan nan nan nan nan nan nan nan nan nan nan nan nan nan nan nan nan nan nan nan nan nan nan nan nan 26 23 nan nan nan nan 14 22 38 42 38
nan nan nan nan nan nan nan nan nan nan nan nan nan nan nan nan nan nan nan nan nan nan nan nan nan nan nan nan nan nan nan nan nan nan 18 nan nan nan nan nan 21 36 35 35 36
nan nan nan nan nan nan nan nan nan nan nan nan nan nan nan nan nan nan nan nan nan nan nan nan nan nan nan nan nan nan nan nan nan nan nan nan nan nan nan nan 16 34 33 31 nan
nan nan nan nan nan nan nan nan nan nan nan nan nan nan nan nan nan nan nan nan nan nan nan nan nan nan nan nan nan nan nan nan nan 26 nan nan nan nan nan nan 27 35 nan nan nan
nan nan nan nan nan nan nan nan nan nan nan nan nan nan nan nan nan nan nan nan nan nan nan nan nan nan nan nan nan nan nan nan nan nan 22 17 nan nan nan nan 31 36 nan nan 15
nan nan nan nan nan nan nan nan nan nan nan nan nan nan nan nan nan nan nan nan nan nan nan nan nan nan nan nan nan nan nan nan 24 25 21 23 nan nan nan 18 18 22 21 19 nan
nan nan nan nan nan nan nan nan nan nan nan nan nan nan nan nan nan nan nan nan nan nan nan nan nan nan nan nan nan nan nan nan nan nan 22 nan nan nan nan nan 14 nan 14 16 21
nan nan nan nan nan nan nan nan nan nan nan nan nan nan nan nan nan nan nan nan nan nan nan nan nan nan nan nan nan nan nan nan nan 16 nan nan nan nan 7 2 7 nan 7 15 16
nan nan nan nan nan nan nan nan nan nan nan nan nan nan nan nan nan nan nan nan nan nan nan nan nan nan nan nan nan nan nan nan nan nan nan nan nan nan 3 1 9 10 10 12 15
nan nan nan nan nan nan nan nan nan nan nan nan nan nan nan nan nan nan nan nan nan nan nan nan nan nan nan nan nan nan nan nan nan nan nan nan nan nan 10 13 16 10 9 11 11
nan nan nan nan nan nan nan nan nan nan nan nan nan nan nan nan nan nan nan nan nan nan nan nan nan nan nan nan nan nan nan nan nan nan nan nan nan nan 10 12 13 10 9 10 18
nan nan nan nan nan nan nan nan nan nan nan nan nan nan nan nan nan nan nan nan nan nan nan nan nan nan nan nan nan nan nan nan nan nan nan nan nan nan 9 12 17 14 11 15 12
nan nan nan nan nan nan nan nan nan nan nan nan nan nan nan nan nan nan nan nan nan nan nan nan nan nan nan nan nan nan nan nan nan nan nan nan nan nan nan 4 10 11 16 15 nan
nan nan nan nan nan nan nan nan nan nan nan nan nan nan nan nan nan nan nan nan nan nan nan nan nan nan nan nan nan nan nan nan nan nan nan nan nan nan nan nan 14 15 16 15 nan
nan nan nan nan nan nan nan nan nan nan nan nan nan nan nan nan nan nan nan nan nan nan nan nan nan nan nan nan nan nan nan nan nan nan nan nan nan nan nan nan nan 21 16 16 21
nan nan nan nan nan nan nan nan nan nan nan nan nan nan nan nan nan nan nan nan nan nan nan nan nan nan nan nan nan nan nan nan nan nan nan nan nan nan nan nan nan nan 5 12 10
nan nan nan nan nan nan nan nan nan nan nan nan nan nan nan nan nan nan nan nan nan nan nan nan nan nan nan nan nan nan nan nan nan nan nan nan nan nan nan nan nan nan nan nan 20
nan nan nan nan nan nan nan nan nan nan nan nan nan nan nan nan nan nan nan nan nan nan nan nan nan nan nan nan nan nan nan nan nan nan nan nan nan nan nan nan nan nan nan nan 14
nan nan nan nan nan nan nan nan nan nan nan nan nan nan nan nan nan nan nan nan nan nan nan nan nan nan nan nan nan nan nan nan nan nan nan nan nan nan nan nan nan nan nan nan 13
nan nan nan nan nan nan nan nan nan nan nan nan nan nan nan nan nan nan nan nan nan nan nan nan nan nan nan nan nan nan nan nan nan nan nan nan nan nan nan nan 14 nan nan 16 16
nan nan nan nan nan nan nan nan nan nan nan nan nan nan nan nan nan nan nan nan nan nan nan nan nan nan nan nan nan nan nan nan nan nan nan nan nan nan nan nan 12 nan 13 18 18
nan nan nan nan nan nan nan nan nan nan nan nan nan nan nan nan nan nan nan nan nan nan nan nan nan nan nan nan nan nan nan nan nan nan nan nan nan nan nan nan 20 18 16 17 20
nan nan nan nan nan nan nan nan nan nan nan nan nan nan nan nan nan nan nan nan nan nan nan nan nan nan nan nan nan nan nan nan nan nan nan nan nan nan nan nan nan nan 23 18 18
nan nan nan nan nan nan nan nan nan nan nan nan nan nan nan nan nan nan nan nan nan nan nan nan nan nan nan nan nan nan nan nan nan nan nan nan nan nan nan nan nan nan nan 22 21
nan nan nan nan nan nan nan nan nan nan nan nan nan nan nan nan nan nan nan nan nan nan nan nan nan nan nan nan nan nan nan nan nan nan nan nan nan nan nan nan nan nan nan nan 24
nan nan nan nan nan nan nan nan nan nan nan nan nan nan nan nan nan nan nan nan nan nan nan nan nan nan nan nan nan nan nan nan nan nan nan nan nan nan nan nan nan nan nan nan nan
nan nan nan nan nan nan nan nan nan nan nan nan nan nan nan nan nan nan nan nan nan nan nan nan nan nan nan nan nan nan nan nan nan nan nan nan nan nan nan nan nan nan nan nan nan
Wind_Direction
nan nan nan nan nan nan nan nan nan nan nan nan nan nan nan nan nan nan nan nan nan nan nan nan nan nan nan nan nan nan nan nan nan nan 213 238 nan nan nan nan 280 269 247 267 271
nan nan nan nan nan nan nan nan nan nan nan nan nan nan nan nan nan nan nan nan nan nan nan nan nan nan nan nan nan nan nan nan nan nan 230 nan nan nan nan nan 264 264 262 269 268
nan nan nan nan nan nan nan nan nan nan nan nan nan nan nan nan nan nan nan nan nan nan nan nan nan nan nan nan nan nan nan nan nan nan nan nan nan nan nan nan 282 300 295 285 nan
nan nan nan nan nan nan nan nan nan nan nan nan nan nan nan nan nan nan nan nan nan nan nan nan nan nan nan nan nan nan nan nan nan 250 nan nan nan nan nan nan 289 306 nan nan nan
nan nan nan nan nan nan nan nan nan nan nan nan nan nan nan nan nan nan nan nan nan nan nan nan nan nan nan nan nan nan nan nan nan nan 255 246 nan nan nan nan 297 302 nan nan 269
nan nan nan nan nan nan nan nan nan nan nan nan nan nan nan nan nan nan nan nan nan nan nan nan nan nan nan nan nan nan nan nan 246 253 260 269 nan nan nan 321 285 305 311 324 nan
nan nan nan nan nan nan nan nan nan nan nan nan nan nan nan nan nan nan nan nan nan nan nan nan nan nan nan nan nan nan nan nan nan nan 284 nan nan nan nan nan 325 nan 353 351 5
nan nan nan nan nan nan nan nan nan nan nan nan nan nan nan nan nan nan nan nan nan nan nan nan nan nan nan nan nan nan nan nan nan 281 nan nan nan nan 280 336 25 nan 353 4 26
nan nan nan nan nan nan nan nan nan nan nan nan nan nan nan nan nan nan nan nan nan nan nan nan nan nan nan nan nan nan nan nan nan nan nan nan nan nan 224 21 56 15 349 355 359
nan nan nan nan nan nan nan nan nan nan nan nan nan nan nan nan nan nan nan nan nan nan nan nan nan nan nan nan nan nan nan nan nan nan nan nan nan nan 360 360 21 8 3 344 355
nan nan nan nan nan nan nan nan nan nan nan nan nan nan nan nan nan nan nan nan nan nan nan nan nan nan nan nan nan nan nan nan nan nan nan nan nan nan 357 38 359 7 346 347 2
nan nan nan nan nan nan nan nan nan nan nan nan nan nan nan nan nan nan nan nan nan nan nan nan nan nan nan nan nan nan nan nan nan nan nan nan nan nan 357 32 13 351 350 2 359
nan nan nan nan nan nan nan nan nan nan nan nan nan nan nan nan nan nan nan nan nan nan nan nan nan nan nan nan nan nan nan nan nan nan nan nan nan nan nan 124 36 16 358 353 nan
nan nan nan nan nan nan nan nan nan nan nan nan nan nan nan nan nan nan nan nan nan nan nan nan nan nan nan nan nan nan nan nan nan nan nan nan nan nan nan nan 359 2 352 357 nan
nan nan nan nan nan nan nan nan nan nan nan nan nan nan nan nan nan nan nan nan nan nan nan nan nan nan nan nan nan nan nan nan nan nan nan nan nan nan nan nan nan 354 351 346 346
nan nan nan nan nan nan nan nan nan nan nan nan nan nan nan nan nan nan nan nan nan nan nan nan nan nan nan nan nan nan nan nan nan nan nan nan nan nan nan nan nan nan 345 326 335
nan nan nan nan nan nan nan nan nan nan nan nan nan nan nan nan nan nan nan nan nan nan nan nan nan nan nan nan nan nan nan nan nan nan nan nan nan nan nan nan nan nan nan nan 339
nan nan nan nan nan nan nan nan nan nan nan nan nan nan nan nan nan nan nan nan nan nan nan nan nan nan nan nan nan nan nan nan nan nan nan nan nan nan nan nan nan nan nan nan 323
nan nan nan nan nan nan nan nan nan nan nan nan nan nan nan nan nan nan nan nan nan nan nan nan nan nan nan nan nan nan nan nan nan nan nan nan nan nan nan nan nan nan nan nan 306
nan nan nan nan nan nan nan nan nan nan nan nan nan nan nan nan nan nan nan nan nan nan nan nan nan nan nan nan nan nan nan nan nan nan nan nan nan nan nan nan 248 nan nan 295 296
nan nan nan nan nan nan nan nan nan nan nan nan nan nan nan nan nan nan nan nan nan nan nan nan nan nan nan nan nan nan nan nan nan nan nan nan nan nan nan nan 294 nan 289 295 303
nan nan nan nan nan nan nan nan nan nan nan nan nan nan nan nan nan nan nan nan nan nan nan nan nan nan nan nan nan nan nan nan nan nan nan nan nan nan nan nan 277 281 279 291 306
nan nan nan nan nan nan nan nan nan nan nan nan nan nan nan nan nan nan nan nan nan nan nan nan nan nan nan nan nan nan nan nan nan nan nan nan nan nan nan nan nan nan 285 280 290
nan nan nan nan nan nan nan nan nan nan nan nan nan nan nan nan nan nan nan nan nan nan nan nan nan nan nan nan nan nan nan nan nan nan nan nan nan nan nan nan nan nan nan 294 305
nan nan nan nan nan nan nan nan nan nan nan nan nan nan nan nan nan nan nan nan nan nan nan nan nan nan nan nan nan nan nan nan nan nan nan nan nan nan nan nan nan nan nan nan 302
nan nan nan nan nan nan nan nan nan nan nan nan nan nan nan nan nan nan nan nan nan nan nan nan nan nan nan nan nan nan nan nan nan nan nan nan nan nan nan nan nan nan nan nan nan
nan nan nan nan nan nan nan nan nan nan nan nan nan nan nan nan nan nan nan nan nan nan nan nan nan nan nan nan nan nan nan nan nan nan nan nan nan nan nan nan nan nan nan nan nan